[[{"header":{"parameterUnit":"m.s-1","parameterCategory":1,"la1":30.2991,"la2":30.254,"lo1":-89.0895,"lo2":-89.0444,"dy":0.0017,"dx":0.0017,"nx":28,"ny":28,"refTime":"2023-08-17T21:00:00:Z","depth":0,"parameterNumber":2,"parameterNumberName":"U-component_of_WINDS"},"data":[0,0,0,0,0,0,0,0,0,0,0,0,0,0,0,0,0,0,0,0,0,0,0,0,0,0,0,0,0,0,0,0,0,0,0,0,0,0,0,0,0,0,0,0,0,0,0,0,0,0,0,0,0,0,0,0,0,0,4.2405,4.2405,0,4.2467,4.2467,4.2468,4.2376,4.2373,4.2369,4.2366,4.2428,4.2432,4.2437,0,0,0,0,0,0,0,0,0,0,0,0,0,4.2202,4.2206,4.2404,4.2405,4.2406,4.2467,4.2467,4.2468,4.2376,4.2373,4.2369,4.2365,4.2426,4.2431,4.2437,0,0,0,0,0,0,0,0,0,0,0,0,0,4.228,4.2208,4.2404,4.2368,4.2365,4.2466,4.2467,4.2469,4.2377,4.2372,4.2368,4.2363,4.2424,4.2431,4.2438,4.2577,0,0,4.2459,4.2462,0,0,0,0,0,0,0,0,4.2275,4.2287,4.2372,4.237,4.2368,4.2409,4.2418,4.2505,4.2379,4.2373,4.2366,4.2361,4.2425,4.2432,4.2454,4.258,4.2583,4.246,4.2464,4.2467,4.2469,0,0,0,0,0,0,0,4.227,4.2284,4.2429,4.2374,4.2371,4.2347,4.2352,4.2434,4.2425,4.2373,4.2366,4.2375,4.2423,4.2447,4.2454,4.2584,4.2459,4.2466,4.247,4.2473,4.2824,4.2829,0,0,0,0,0,0,4.227,4.228,4.2427,4.2431,4.2309,4.2354,4.2361,4.24,4.2424,4.2423,4.2379,4.237,4.2438,4.2447,4.2456,4.2618,4.2467,4.2473,4.2477,4.2819,4.2825,4.2831,0,0,0,0,0,0,4.2266,4.2284,4.2424,4.2354,4.237,4.2363,4.2408,4.2404,4.2428,4.2429,4.2426,4.2406,4.2434,4.2447,4.2547,4.2619,4.2476,4.2483,4.2813,4.2821,4.2828,4.2945,0,0,0,0,0,0,4.226,4.2283,4.2337,4.2356,4.2374,4.2516,4.2413,4.2409,4.2441,4.243,4.2453,4.2452,4.2431,4.2537,4.2554,4.2626,4.2488,4.2806,4.2816,4.2825,4.2934,4.2956,4.2974,0,0,0,0,0,4.2253,4.2368,4.234,4.2358,4.2442,4.252,4.2531,4.2505,4.2447,4.25,4.25,4.2452,4.2609,4.2549,4.2567,4.2642,4.2801,4.2813,4.2825,4.2926,4.2951,4.2973,0,0,0,0,0,0,4.2357,4.2369,4.2339,4.2463,4.2491,4.2505,4.2571,4.2534,4.2578,4.2566,4.2532,4.2538,4.2645,4.2654,4.2586,4.2776,4.2695,4.2711,4.2766,4.2791,4.281,4.2804,4.2494,0,0,0,0,0,4.2394,4.2458,4.2465,4.2574,4.259,4.2578,4.2612,4.2589,4.2617,4.2628,4.2635,4.2663,4.2718,4.2755,4.2807,4.2936,4.2938,4.2997,4.3016,4.3032,4.3045,4.3111,4.3136,4.2869,4.2869,4.2869,0,0,4.2471,4.2486,4.2529,4.2595,4.2614,4.2679,4.2589,4.2662,4.271,4.2639,4.2733,4.274,4.2769,4.2884,4.2935,4.2894,4.312,4.3047,4.306,4.3064,4.3126,4.3151,4.3173,4.2877,4.2875,4.2874,0,0,4.2645,4.2664,4.2755,4.2776,4.2807,4.2798,4.282,4.2839,4.2841,4.2936,4.2883,4.2938,4.3036,4.3057,4.308,4.3261,4.3217,4.3279,4.338,4.3445,4.3466,4.3484,4.3545,4.3568,4.3293,4.3293,4.3293,0,4.2736,4.2834,4.2806,4.2883,4.2912,4.2852,4.2942,4.2964,4.301,4.303,4.2985,4.3103,4.3119,4.3236,4.328,4.3303,4.3324,4.3275,4.3465,4.3483,4.35,4.3558,4.3581,4.33,4.3299,4.3299,4.3298,0,4.2943,4.3011,4.3081,4.3126,4.3164,4.3247,4.323,4.3271,4.3246,4.3242,4.3338,4.3354,4.3406,4.3433,4.3409,4.3546,4.352,4.3471,4.3388,4.3533,4.3586,4.3608,4.331,4.3308,4.3306,4.3304,0,0,4.3182,4.3211,4.3236,4.3255,4.3284,4.3335,4.3415,4.3466,4.35,4.3534,4.3598,4.3681,4.3635,4.3662,4.364,4.3697,4.3835,4.364,4.364,4.3673,4.3983,4.4017,4.4043,4.3807,4.3811,4.3814,4.3979,0,4.3352,4.349,4.3466,4.3599,4.366,4.3604,4.3673,4.3697,4.3695,4.3745,4.3743,4.3801,4.3738,4.3753,4.3808,4.3807,4.3896,4.3795,4.3863,4.3866,4.3854,4.4072,4.4108,4.4263,4.4,4.4004,4.4006,0,4.3568,4.3609,4.3748,4.3765,4.379,4.3853,4.3896,4.3946,4.3972,4.3966,4.3996,4.3963,4.404,4.3959,4.4063,4.3995,4.4022,4.4026,4.4031,4.4033,4.3942,4.4076,4.4312,4.4334,4.404,4.4037,4.4035,0,4.3723,4.3814,4.3908,4.3926,4.395,4.3994,4.4006,4.4027,4.4058,4.4097,4.4116,4.4163,4.4188,4.4225,4.4204,4.4148,4.4311,4.4229,4.4306,4.4306,4.434,4.4337,4.4579,4.4364,4.4363,4.4363,4.4363,0,4.3913,4.4,4.3977,4.4035,4.4129,4.4102,4.4195,4.42,4.4219,4.4275,4.423,4.4283,4.4255,4.4306,4.4291,4.4377,4.439,4.4385,4.438,4.4387,4.4387,4.4402,4.4389,4.4369,4.4368,4.4367,4.4366,0,4.4101,4.4091,4.4188,4.4203,4.4208,4.4277,4.4288,4.434,4.4336,4.4407,4.4422,4.4414,4.4471,4.4455,4.4517,4.4507,4.4615,4.4598,4.4606,4.46,4.4677,4.4668,4.4933,4.4965,4.4733,4.4735,4.4737,0,4.4221,4.4286,4.4307,4.4342,4.4357,4.4414,4.4445,4.4421,4.4455,4.4489,4.4537,4.459,4.4631,4.4724,4.4723,4.4769,4.475,4.484,4.4757,4.4761,4.4747,4.4742,4.4746,4.4855,4.4858,4.486,4.4862,0,4.4435,4.4426,4.4474,4.452,4.4559,4.4594,4.4625,4.4655,4.4632,4.4673,4.4731,4.4763,4.4826,4.4878,4.4921,4.4931,4.4892,4.4889,4.4908,4.4915,4.4916,4.4912,4.4647,4.4882,4.488,4.4879,4.4877,4.4877,4.4589,4.4643,4.4666,4.472,4.4741,4.477,4.4819,4.4821,4.4869,4.4918,4.4901,4.4966,4.4988,4.5041,4.5057,4.5107,4.5072,4.5101,4.5108,4.5115,4.5122,4.4911,4.5115,4.5114,4.5114,4.5113,4.5113,0,4.4797,4.4809,4.4859,4.4903,4.4945,4.4907,4.4939,4.4976,4.5034,4.5059,4.51,4.5165,4.5215,4.5218,4.5264,4.5303,4.5286,4.5316,4.5311,4.5313,4.5153,4.5129,4.5329,4.5329,4.5329,4.5329,4.5328,4.5328,4.4909,4.4997,4.4991,4.5088,4.5099,4.5163,4.5184,4.521,4.5229,4.5304,4.5345,4.5347,4.5362,4.5409,4.5453,4.5452,4.5469,4.5505,4.5498,4.5347,4.5325,4.5304,4.5282,4.551,4.551,4.5653,4.5655,4.5656]},{"header":{"parameterUnit":"m.s-1","parameterCategory":1,"la1":30.2991,"la2":30.254,"lo1":-89.0895,"lo2":-89.0444,"dy":0.0017,"dx":0.0017,"nx":28,"ny":28,"refTime":"2023-08-17T21:00:00:Z","depth":0,"parameterNumber":3,"parameterNumberName":"V-component_of_WINDS"},"data":[0,0,0,0,0,0,0,0,0,0,0,0,0,0,0,0,0,0,0,0,0,0,0,0,0,0,0,0,0,0,0,0,0,0,0,0,0,0,0,0,0,0,0,0,0,0,0,0,0,0,0,0,0,0,0,0,0,0,3.868,3.8681,0,3.8765,3.8766,3.8767,3.8747,3.8745,3.8743,3.8742,3.8825,3.8828,3.8832,0,0,0,0,0,0,0,0,0,0,0,0,0,3.8494,3.8498,3.868,3.8681,3.8682,3.8765,3.8766,3.8767,3.8747,3.8745,3.8743,3.8741,3.8823,3.8828,3.8832,0,0,0,0,0,0,0,0,0,0,0,0,0,3.8577,3.8499,3.868,3.8682,3.8683,3.8765,3.8766,3.8768,3.8747,3.8745,3.8742,3.874,3.8822,3.8827,3.8833,3.8916,0,0,3.885,3.8852,0,0,0,0,0,0,0,0,3.8572,3.8583,3.8681,3.8682,3.8683,3.8743,3.8731,3.8817,3.8748,3.8723,3.8742,3.8739,3.8799,3.8806,3.8827,3.892,3.8923,3.885,3.8854,3.8856,3.8858,0,0,0,0,0,0,0,3.8566,3.858,3.8714,3.8682,3.8684,3.8677,3.8686,3.8747,3.8773,3.8725,3.8724,3.8734,3.8799,3.8822,3.8829,3.8925,3.885,3.8855,3.8859,3.8861,3.9087,3.9089,0,0,0,0,0,0,3.856,3.8575,3.8711,3.8716,3.8621,3.8682,3.8692,3.8726,3.8773,3.8778,3.8736,3.8733,3.8814,3.8823,3.8832,3.8931,3.8856,3.8861,3.8864,3.9084,3.9087,3.909,0,0,0,0,0,0,3.8556,3.8573,3.8707,3.8645,3.8662,3.8688,3.8726,3.8729,3.8752,3.8781,3.8785,3.8755,3.8812,3.8824,3.8895,3.8934,3.8864,3.8869,3.9081,3.9085,3.9089,3.913,0,0,0,0,0,0,3.8551,3.8571,3.8605,3.8646,3.8665,3.8771,3.8729,3.8733,3.8762,3.8759,3.88,3.8805,3.8811,3.8887,3.8901,3.894,3.8873,3.9078,3.9083,3.9088,3.9126,3.9135,3.9144,0,0,0,0,0,3.8545,3.8612,3.8606,3.8623,3.8708,3.8773,3.8784,3.8791,3.8766,3.8798,3.8817,3.8803,3.8927,3.8894,3.891,3.8951,3.9075,3.9081,3.9087,3.9122,3.9133,3.9143,0,0,0,0,0,0,3.8573,3.8618,3.8612,3.8696,3.8731,3.877,3.8811,3.8804,3.8846,3.8841,3.8847,3.8856,3.8928,3.8947,3.8909,3.9033,3.8997,3.9007,3.9018,3.903,3.9038,3.9032,3.8878,0,0,0,0,0,3.859,3.8641,3.8676,3.8747,3.8765,3.8785,3.8814,3.8816,3.8852,3.8867,3.8891,3.8925,3.8971,3.9001,3.9046,3.9128,3.9136,3.9164,3.9173,3.918,3.9188,3.9231,3.9243,3.911,3.911,3.911,0,0,3.8624,3.8654,3.8686,3.8753,3.8781,3.8831,3.8798,3.8853,3.889,3.8875,3.8943,3.8962,3.9,3.9076,3.9111,3.9094,3.9227,3.9188,3.9194,3.9197,3.9238,3.9251,3.9262,3.9114,3.9113,3.9113,0,0,3.8711,3.874,3.8801,3.883,3.8872,3.8885,3.89,3.8939,3.8951,3.902,3.9009,3.9052,3.9133,3.916,3.9184,3.928,3.9269,3.9295,3.9341,3.9382,3.9393,3.9402,3.9434,3.9446,3.9302,3.9302,3.9302,0,3.8747,3.8825,3.8833,3.889,3.8918,3.8908,3.8968,3.8995,3.9049,3.9068,3.9049,3.9149,3.9174,3.9255,3.9279,3.9299,3.9314,3.929,3.9391,3.94,3.9409,3.944,3.9452,3.9305,3.9305,3.9305,3.9304,0,3.8866,3.892,3.8964,3.9018,3.9051,3.9109,3.9124,3.9157,3.9157,3.9171,3.924,3.9269,3.9319,3.9339,3.9338,3.942,3.9407,3.939,3.9354,3.9424,3.9453,3.9465,3.9309,3.9308,3.9307,3.9307,0,0,3.8974,3.9032,3.9047,3.9071,3.9116,3.9157,3.9213,3.9263,3.929,3.9327,3.9373,3.9441,3.9424,3.9452,3.9454,3.9491,3.9563,3.9468,3.9469,3.9483,3.9651,3.9664,3.9677,3.9556,3.9558,3.956,3.9648,0,3.9065,3.9166,3.9174,3.9264,3.9312,3.9303,3.9352,3.9384,3.9398,3.9439,3.9455,3.9502,3.9477,3.9494,3.953,3.9546,3.9596,3.954,3.9596,3.9598,3.9586,3.9693,3.9706,3.9788,3.9659,3.9661,3.9663,0,3.9183,3.9225,3.932,3.9358,3.9378,3.9422,3.9467,3.9508,3.9543,3.955,3.9581,3.9578,3.9633,3.9596,3.9672,3.9633,3.9657,3.9668,3.9671,3.9676,3.9634,3.9698,3.9814,3.9826,3.9681,3.9679,3.9678,0,3.925,3.933,3.9397,3.9418,3.9463,3.9494,3.9514,3.9547,3.9576,3.9614,3.9632,3.9677,3.9701,3.9734,3.9742,3.9715,3.9817,3.9781,3.9823,3.9823,3.9844,3.9842,3.9963,3.9861,3.9861,3.9861,3.9861,0,3.9349,3.9407,3.9428,3.9469,3.9533,3.9541,3.9603,3.9621,3.965,3.9693,3.9687,3.9727,3.9736,3.9777,3.9784,3.9844,3.9855,3.9861,3.9862,3.9861,3.986,3.9875,3.9869,3.9864,3.9864,3.9863,3.9862,0,3.9435,3.9451,3.9523,3.956,3.9571,3.9616,3.9647,3.9685,3.9698,3.9752,3.9765,3.9786,3.9833,3.9845,3.9902,3.9906,3.9977,3.9973,3.9965,3.9964,4.0005,4.0001,4.0139,4.0157,4.0045,4.0046,4.0047,0,3.9496,3.9541,3.9583,3.9611,3.9633,3.968,3.9709,3.9718,3.9748,3.9791,3.9823,3.987,3.9909,3.9985,4.0003,4.0046,4.0042,4.0088,4.0048,4.0046,4.0041,4.0037,4.0041,4.0095,4.0096,4.0097,4.0098,0,3.9603,3.9608,3.9652,3.9697,3.9733,3.9769,3.9803,3.9826,3.984,3.9874,3.9923,3.9953,4.0011,4.0057,4.01,4.0118,4.0109,4.011,4.0122,4.0121,4.0114,4.0116,3.9984,4.0107,4.0106,4.0105,4.0105,4.0104,3.9677,3.9715,3.9751,3.9798,3.9825,3.9857,3.9895,3.9913,3.9954,4.0003,4.0005,4.0058,4.009,4.0147,4.0168,4.0208,4.0194,4.0211,4.0215,4.0219,4.0222,4.0109,4.0216,4.0216,4.0216,4.0215,4.0215,0,3.9781,3.9804,3.9848,3.9896,3.9933,3.9924,3.9961,3.9992,4.0039,4.007,4.0108,4.0163,4.0208,4.023,4.0273,4.0301,4.0298,4.0312,4.0309,4.0313,4.0233,4.0218,4.0313,4.0313,4.0313,4.0313,4.0313,4.0313,3.984,3.9904,3.9914,3.999,4.0011,4.0064,4.0086,4.0114,4.0139,4.0202,4.0239,4.0254,4.0281,4.0326,4.0365,4.037,4.0386,4.0401,4.0404,4.0329,4.0319,4.0309,4.0295,4.0405,4.0405,4.0481,4.0481,4.0482]}]]